Wind_Speed
10 11 11 11 11 11 11 11 11 12 12 12 13 13 13 13 13 14 15 15 14 15 15 15 15 15 15 15 16 16 16 15 15 16 16 16 16 16 16 16 16 16 16
10 11 11 11 11 11 12 12 12 12 12 12 13 13 13 13 14 14 14 15 15 14 15 15 15 15 15 15 15 15 15 15 15 16 16 16 16 16 15 16 16 16 16
10 10 11 11 11 11 11 12 11 11 12 12 13 13 14 14 15 15 15 16 16 15 15 15 15 15 16 16 16 16 16 16 16 16 16 16 16 16 16 16 16 16 16
10 10 10 11 11 11 11 11 12 12 12 12 13 13 14 14 15 15 15 16 16 16 16 16 16 16 16 16 16 16 16 17 16 16 17 17 16 16 16 16 16 17 17
11 11 11 11 11 12 11 12 12 13 12 13 13 13 14 14 15 15 15 16 16 16 17 17 17 17 17 17 17 17 17 17 17 18 17 17 17 17 16 17 17 18 18
12 11 11 11 12 12 13 12 13 13 13 13 14 14 14 15 16 16 17 17 17 18 18 18 18 18 18 17 18 18 18 18 18 19 19 19 18 18 18 18 18 18 18
12 12 12 12 12 12 12 12 13 13 13 14 14 14 15 16 17 17 18 18 18 19 19 19 18 18 18 18 18 19 19 19 20 20 20 20 20 19 19 19 19 19 19
12 12 12 13 12 12 12 13 13 13 13 13 13 14 15 16 17 17 17 18 18 18 19 19 19 18 18 18 18 19 20 21 21 21 21 20 20 20 19 19 20 20 20
13 13 12 13 12 13 13 13 13 13 13 13 14 14 15 16 16 16 17 18 18 18 18 18 19 19 19 19 19 19 20 20 21 21 21 21 20 20 20 20 20 20 20
14 13 13 13 13 13 13 13 13 13 13 14 14 14 15 16 15 15 16 17 18 18 18 18 18 19 19 19 19 19 20 20 21 21 21 20 20 20 20 21 21 20 20
14 14 14 14 14 13 13 13 13 13 14 14 14 14 15 15 15 15 15 16 17 17 18 18 19 19 19 20 20 20 20 20 20 21 20 21 21 20 20 20 20 21 21
15 14 14 14 14 14 14 14 14 14 14 14 15 15 15 15 15 15 16 16 17 17 18 19 19 19 20 20 20 21 21 21 20 20 20 20 20 20 20 20 21 21 21
16 15 16 15 15 16 15 15 15 15 15 15 14 15 15 15 15 16 16 16 17 17 17 17 19 19 20 21 20 20 20 20 20 20 20 20 20 21 21 21 21 20 20
17 17 17 17 17 17 17 17 16 16 16 16 15 15 16 16 16 16 16 17 17 17 16 17 18 18 19 20 20 20 20 20 20 20 20 21 21 21 21 21 19 19 20
18 18 18 18 18 18 18 18 17 17 17 17 17 16 16 16 17 17 18 17 17 17 17 17 17 17 18 18 19 19 19 19 20 20 20 20 20 21 22 21 20 20 20
19 19 19 19 19 19 19 19 19 18 18 19 19 18 18 18 17 18 18 17 17 17 17 18 18 18 18 19 19 20 20 20 20 20 20 20 20 20 21 21 21 21 21
19 19 19 20 20 20 20 19 19 18 18 19 19 19 20 20 19 18 18 18 17 17 17 18 18 18 18 19 19 19 20 20 20 20 20 20 20 20 19 20 20 20 20
20 20 20 20 19 19 19 19 19 19 19 19 19 20 20 20 20 20 19 19 19 18 18 18 19 19 19 19 20 20 20 21 21 21 21 21 21 21 20 19 20 20 21
20 20 20 19 20 19 19 19 20 19 20 20 20 21 21 20 20 20 20 20 20 20 19 20 20 20 20 20 20 21 21 21 20 21 21 21 21 21 21 21 21 21 21
19 20 20 19 20 20 20 20 20 20 21 21 21 21 21 21 21 20 20 20 21 21 21 21 21 21 21 22 22 22 22 22 22 21 21 21 22 22 22 21 21 21 21
20 20 20 20 20 20 20 20 20 21 21 22 21 21 21 21 21 21 21 21 21 21 21 22 22 22 22 23 23 23 23 22 22 22 21 22 23 23 23 23 23 23 22
21 21 21 21 20 20 20 20 21 21 21 22 22 22 22 22 22 21 20 20 20 21 22 22 23 23 23 24 24 24 24 24 23 23 22 23 23 24 24 24 24 23 23
21 21 21 21 21 21 21 21 21 21 21 21 21 22 22 22 22 22 22 21 21 22 23 23 24 24 24 24 24 24 25 24 24 24 24 23 23 23 24 24 24 24 24
21 22 22 22 21 21 22 22 22 22 22 22 23 23 23 23 23 22 22 23 23 24 24 24 25 25 25 25 25 25 25 25 24 24 24 24 23 23 24 24 24 24 24
22 23 23 23 23 23 23 23 23 23 24 24 24 24 24 24 24 24 24 24 24 24 24 23 24 24 24 25 25 25 25 24 24 25 25 25 24 24 24 24 24 24 24
24 24 25 25 25 25 25 25 25 25 25 25 25 25 25 25 25 25 25 25 25 26 25 25 25 24 24 24 24 24 24 25 25 25 25 26 25 25 25 25 25 24 24
Wind_Direction
265 265 265 265 266 268 269 269 269 269 270 267 266 264 262 258 257 259 257 258 258 257 257 258 256 255 255 256 256 255 256 256 257 255 255 256 258 258 258 257 258 257 255
266 265 264 263 265 267 270 271 270 269 266 262 262 263 263 259 260 260 258 258 258 257 256 258 258 257 256 256 256 257 257 256 256 255 255 255 259 260 260 258 257 257 254
268 266 264 265 265 266 269 271 270 269 267 264 263 263 262 260 259 261 262 258 257 258 258 258 259 259 256 255 255 256 255 255 256 257 258 257 259 259 260 261 256 254 253
271 269 266 267 266 267 269 272 272 271 270 268 265 264 264 263 263 264 263 260 260 260 259 258 257 258 259 257 256 255 254 255 255 257 258 258 258 258 259 261 259 255 255
272 270 271 271 269 269 269 272 273 271 270 270 268 266 269 268 263 263 264 265 265 264 262 260 258 257 258 259 256 255 255 255 255 256 258 258 258 258 259 261 262 259 256
272 271 272 273 272 272 271 274 274 271 272 272 271 271 275 273 266 268 266 266 266 263 261 260 260 257 257 258 256 255 256 256 258 259 259 259 260 259 260 262 263 262 261
273 274 274 273 272 272 273 274 276 275 276 273 271 273 276 274 271 269 268 267 266 264 260 259 258 258 259 258 257 257 256 255 257 258 259 260 259 259 260 262 261 261 263
273 275 275 273 273 276 275 275 277 276 281 279 277 276 275 275 275 271 269 267 267 265 262 259 258 258 258 258 257 257 257 257 257 259 259 260 261 259 260 261 261 260 261
273 272 274 274 275 277 278 277 277 279 281 282 282 281 278 277 276 272 272 271 270 268 265 262 259 258 258 257 256 258 258 259 258 259 259 260 261 260 261 260 260 260 261
272 272 273 274 275 276 278 280 280 281 282 284 285 284 282 282 281 276 274 271 271 269 266 263 261 260 259 258 258 259 258 260 259 258 259 260 261 261 261 260 260 261 262
273 274 273 272 274 276 277 281 283 285 284 283 283 283 282 282 283 281 280 278 274 271 267 264 262 262 262 260 260 261 261 260 259 259 260 259 261 261 262 261 261 260 262
270 272 273 274 274 276 277 280 284 285 283 283 284 285 284 283 281 281 282 283 279 274 270 264 262 262 261 261 260 261 260 259 260 260 258 257 259 263 263 261 260 260 262
267 268 271 272 274 275 275 278 281 282 282 282 284 286 286 284 283 284 284 284 281 277 272 266 263 261 260 261 261 260 259 258 260 260 257 257 259 262 262 262 259 259 262
268 269 270 270 272 273 273 275 277 278 279 281 283 284 285 284 284 285 285 283 280 277 272 268 264 262 262 262 260 259 257 258 260 261 260 260 260 260 261 260 259 260 262
269 270 269 269 272 273 273 273 275 275 276 278 278 278 281 283 285 285 285 282 280 275 272 271 266 264 265 264 261 260 259 260 259 261 260 260 261 260 260 258 259 261 263
269 270 270 270 271 271 272 273 272 272 273 276 277 279 281 283 283 284 284 281 279 276 274 273 268 266 267 265 263 261 260 261 261 262 261 260 262 262 259 258 259 261 264
267 269 271 272 273 272 272 272 272 273 275 277 280 282 282 282 281 282 281 279 278 277 274 271 269 268 267 266 265 263 261 259 261 263 262 261 261 261 261 260 261 262 264
267 269 270 273 273 274 273 273 273 275 277 279 281 282 282 281 280 280 280 278 277 276 272 270 268 268 268 267 267 265 263 260 259 261 262 262 261 260 261 261 264 266 267
267 269 272 273 273 274 275 277 276 276 278 280 282 282 281 280 279 279 280 279 277 276 273 270 268 268 268 268 267 266 264 261 259 259 261 262 261 261 262 263 266 267 268
266 268 270 272 274 275 275 276 277 277 279 281 283 283 281 279 278 278 278 278 278 275 273 271 269 268 268 268 267 266 264 262 261 261 261 263 262 262 263 264 266 268 269
266 267 269 272 273 274 275 277 276 277 279 280 281 283 282 280 278 278 279 278 276 275 273 271 270 269 269 269 268 266 264 262 262 264 264 264 263 263 263 264 265 267 268
268 270 270 272 274 275 277 278 278 277 278 279 280 282 282 281 280 278 277 276 276 275 273 271 271 271 270 269 268 266 263 262 263 264 263 264 264 264 264 264 266 267 268
269 271 272 272 274 276 277 279 280 279 278 278 279 280 281 281 280 276 275 275 275 275 274 274 273 271 270 269 268 265 263 263 263 264 263 264 264 263 264 265 266 268 269
268 269 272 272 273 275 277 279 281 280 279 279 279 279 280 280 279 278 277 276 275 276 275 275 274 272 269 269 267 264 262 262 263 263 265 265 265 266 264 264 266 268 269
269 271 272 272 273 276 277 278 279 281 281 280 279 280 280 279 280 278 277 277 276 277 276 276 275 272 270 270 267 264 262 262 263 263 264 265 266 267 264 265 265 267 268
271 272 271 271 272 274 276 277 278 280 280 279 278 279 279 279 279 279 277 277 277 277 275 274 274 273 273 270 266 263 262 263 264 264 264 266 266 266 264 264 265 267 268
Height
5851 5851 5851 5850 5850 5850 5849 5849 5849 5848 5848 5847 5847 5847 5847 5847 5846 5846 5846 5846 5846 5846 5846 5846 5846 5846 5847 5847 5848 5848 5848 5849 5849 5850 5850 5851 5851 5852 5852 5853 5853 5854 5854
5849 5849 5848 5848 5848 5847 5847 5846 5846 5845 5845 5844 5844 5844 5844 5844 5843 5843 5843 5843 5843 5842 5843 5843 5843 5843 5844 5844 5845 5845 5845 5846 5846 5847 5847 5848 5848 5848 5849 5850 5850 5850 5851
5847 5846 5846 5845 5845 5844 5844 5843 5843 5842 5842 5842 5841 5841 5841 5840 5840 5840 5839 5839 5839 5839 5839 5840 5840 5840 5840 5841 5841 5842 5842 5843 5843 5843 5844 5845 5845 5845 5846 5846 5846 5847 5847
5844 5844 5843 5843 5842 5842 5841 5841 5840 5839 5839 5838 5838 5838 5837 5837 5837 5836 5836 5836 5836 5836 5836 5836 5836 5837 5837 5837 5838 5838 5839 5839 5840 5840 5841 5841 5841 5842 5842 5843 5843 5843 5844
5841 5841 5840 5840 5839 5839 5838 5838 5837 5836 5836 5835 5835 5834 5834 5833 5833 5833 5833 5832 5832 5832 5832 5832 5833 5833 5833 5834 5834 5835 5835 5835 5836 5837 5837 5837 5838 5838 5839 5839 5839 5840 5840
5838 5838 5838 5837 5836 5836 5835 5835 5834 5833 5833 5832 5832 5831 5830 5830 5829 5829 5829 5828 5828 5828 5828 5828 5829 5829 5829 5830 5830 5831 5831 5832 5832 5833 5833 5833 5834 5834 5835 5835 5835 5835 5836
5835 5835 5835 5834 5834 5833 5832 5831 5831 5830 5829 5828 5828 5827 5827 5826 5825 5825 5824 5824 5824 5824 5823 5824 5824 5825 5825 5826 5826 5826 5827 5827 5828 5828 5829 5829 5830 5830 5831 5831 5831 5831 5831
5832 5832 5831 5831 5830 5830 5829 5828 5827 5827 5826 5825 5824 5824 5823 5823 5821 5820 5820 5820 5819 5819 5819 5819 5819 5820 5820 5821 5821 5822 5822 5823 5823 5824 5824 5824 5825 5825 5826 5826 5827 5827 5827
5829 5829 5828 5827 5827 5826 5826 5825 5824 5823 5822 5822 5821 5820 5819 5818 5817 5817 5815 5815 5814 5814 5814 5814 5815 5815 5815 5816 5816 5817 5817 5818 5818 5819 5819 5820 5821 5821 5821 5821 5822 5822 5822
5826 5825 5825 5824 5823 5823 5822 5821 5821 5820 5819 5818 5817 5816 5815 5814 5813 5812 5812 5811 5810 5809 5809 5809 5809 5810 5810 5810 5811 5812 5812 5813 5813 5814 5815 5815 5816 5816 5816 5816 5816 5816 5817
5823 5822 5821 5821 5820 5819 5819 5818 5817 5816 5815 5814 5813 5812 5811 5810 5809 5808 5807 5806 5805 5804 5804 5804 5804 5804 5805 5805 5806 5806 5807 5807 5808 5809 5809 5810 5810 5811 5811 5810 5811 5811 5812
5819 5818 5818 5817 5816 5816 5815 5814 5813 5812 5811 5810 5809 5808 5807 5806 5805 5804 5803 5802 5800 5799 5798 5798 5799 5799 5799 5800 5800 5801 5802 5802 5803 5803 5804 5805 5805 5806 5806 5806 5806 5806 5807
5815 5814 5814 5813 5812 5811 5810 5810 5809 5808 5807 5806 5805 5804 5803 5802 5800 5799 5798 5796 5795 5794 5793 5793 5793 5794 5794 5795 5795 5795 5796 5797 5798 5798 5799 5800 5800 5801 5801 5801 5801 5801 5801
5810 5810 5809 5809 5808 5807 5806 5805 5805 5804 5803 5802 5801 5800 5798 5797 5796 5795 5793 5792 5790 5789 5788 5788 5788 5788 5789 5789 5790 5790 5791 5792 5792 5793 5794 5794 5795 5795 5795 5795 5796 5796 5796
5805 5805 5804 5804 5803 5802 5801 5801 5800 5799 5798 5798 5796 5795 5794 5793 5791 5790 5788 5787 5786 5784 5784 5783 5783 5783 5784 5784 5784 5785 5785 5786 5787 5788 5788 5789 5789 5789 5790 5790 5790 5791 5791
5800 5800 5799 5798 5798 5797 5796 5795 5795 5794 5793 5792 5791 5790 5789 5788 5786 5785 5783 5782 5781 5780 5779 5779 5779 5778 5779 5779 5779 5779 5780 5781 5782 5782 5783 5783 5784 5784 5784 5785 5785 5785 5786
5794 5794 5794 5793 5792 5792 5791 5790 5789 5788 5787 5787 5786 5785 5784 5782 5781 5780 5778 5777 5776 5775 5774 5774 5774 5774 5774 5774 5774 5774 5775 5775 5776 5777 5777 5778 5778 5778 5779 5779 5780 5780 5780
5789 5788 5788 5787 5787 5786 5785 5784 5783 5783 5782 5781 5780 5779 5778 5776 5775 5774 5773 5772 5771 5770 5770 5769 5769 5769 5769 5769 5768 5769 5769 5770 5770 5771 5772 5772 5773 5773 5773 5774 5774 5774 5774
5783 5782 5782 5781 5781 5780 5779 5779 5778 5777 5776 5775 5774 5773 5772 5771 5770 5769 5768 5767 5766 5765 5765 5764 5764 5764 5763 5763 5763 5763 5763 5764 5764 5765 5765 5766 5767 5767 5767 5768 5768 5768 5768
5776 5776 5776 5775 5775 5774 5774 5773 5772 5771 5770 5769 5768 5767 5766 5765 5763 5762 5762 5761 5760 5759 5759 5758 5758 5758 5758 5757 5757 5757 5757 5758 5758 5759 5760 5760 5761 5761 5761 5762 5762 5762 5762
5770 5770 5770 5769 5769 5768 5768 5767 5766 5765 5764 5763 5761 5760 5759 5758 5757 5756 5755 5755 5754 5753 5753 5752 5752 5752 5751 5751 5751 5751 5751 5751 5752 5753 5753 5754 5754 5755 5755 5755 5756 5756 5756
5764 5764 5763 5763 5763 5762 5761 5760 5759 5758 5757 5756 5755 5754 5752 5751 5750 5750 5749 5748 5747 5747 5746 5746 5745 5745 5745 5744 5744 5744 5745 5745 5746 5747 5747 5747 5748 5748 5748 5748 5749 5749 5749
5758 5757 5757 5757 5756 5756 5755 5754 5753 5751 5750 5749 5748 5747 5746 5745 5744 5743 5742 5741 5741 5740 5739 5739 5738 5738 5737 5737 5737 5737 5738 5738 5739 5740 5740 5740 5741 5741 5741 5741 5742 5742 5742
5751 5751 5751 5750 5750 5749 5748 5747 5746 5745 5744 5743 5741 5740 5739 5738 5737 5736 5735 5734 5734 5733 5732 5732 5731 5730 5730 5729 5730 5730 5730 5731 5732 5733 5733 5733 5734 5734 5734 5735 5735 5735 5735
5745 5744 5744 5744 5743 5742 5741 5740 5739 5738 5737 5735 5734 5733 5732 5731 5730 5729 5728 5727 5726 5725 5725 5724 5723 5723 5722 5722 5722 5722 5723 5724 5725 5725 5726 5726 5727 5727 5727 5727 5728 5728 5728
5737 5737 5737 5736 5736 5735 5734 5733 5732 5731 5729 5728 5727 5726 5725 5723 5722 5721 5720 5719 5718 5718 5717 5716 5716 5715 5715 5714 5714 5715 5716 5717 5717 5718 5718 5719 5719 5719 5720 5720 5720 5720 5720